Weather History for Louisville Bowman, KY

Change the Weather History Date:

Sunday, January 7, 2001

  Actual Average Record
Temperature  
Mean Temperature 38 °F 34 °F  
Max Temperature 48 °F 42 °F 70 °F (2008)
Min Temperature 28 °F 27 °F -3 °F (2014)
Degree Days  
Heating Degree Days 27 31  
Month to date heating degree days 211  
Since 1 July heating degree days 1875  
Cooling Degree Days 0 0  
Month to date cooling degree days 0  
Year to date cooling degree days 0  
Moisture  
Dew Point 26 °F    
Average Humidity 66    
Maximum Humidity 79    
Minimum Humidity 50    
Precipitation  
Precipitation 0.00 in 0.11 in 0.73 in (1989)
Month to date precipitation 0.87  
Year to date precipitation 0.87  
Sea Level Pressure  
Sea Level Pressure 29.87 in    
Wind  
Wind Speed 3 mph (West)    
Max Wind Speed 10 mph    
Max Gust Speed -    
Visibility 10 miles    
Events      
T = Trace of Precipitation, MM = Missing Value Source: NWS Daily Summary

Daily Weather History Graph

Daily Weather History Graph

Search for Another Location

Airport:

Trip Planner

Search our weather history database for the weather conditions in past years. The results will help you decide how hot, cold, wet, or windy it might be!

Date:

Astronomy

Jan. 07, 2001 Rise Set
Actual Time 7:59 AM EST 5:38 PM EST
Civil Twilight 7:30 AM EST 6:08 PM EST
Nautical Twilight 6:57 AM EST 6:40 PM EST
Astronomical Twilight 6:25 AM EST 7:12 PM EST
Moon 3:40 PM EST (1/7) 5:29 AM EST (1/7)
Length of Visible Light 10h 37m
Length of Day
9h 39m
Waxing Gibbous, 93% of the Moon is Illuminated
Jan 7
Waxing Gibbous
Jan 9
Full
Jan 16
Last Quarter
Jan 24
New
Feb 1
First Quarter

Hourly Weather History & Observations

Time (EST) Temp. Windchill Dew Point Humidity Pressure Visibility Wind Dir Wind Speed Gust Speed Precip Events Conditions
12:53 AM 36.0 °F 33.3 °F 23.0 °F 59% 29.83 in 10.0 mi South 3.5 mph - N/A   Clear
1:53 AM 32.0 °F 28.7 °F 21.9 °F 66% 29.83 in 10.0 mi South 3.5 mph - N/A   Clear
2:53 AM 33.8 °F 28.6 °F 23.0 °F 65% 29.82 in 10.0 mi SSW 5.8 mph - N/A   Clear
3:53 AM 30.9 °F - 21.9 °F 69% 29.84 in 10.0 mi Calm Calm - N/A   Clear
4:53 AM 28.0 °F - 21.9 °F 78% 29.84 in 10.0 mi Calm Calm - N/A   Clear
5:53 AM 30.9 °F - 23.0 °F 72% 29.84 in 10.0 mi Calm Calm - N/A   Clear
6:53 AM 30.0 °F - 21.9 °F 72% 29.86 in 10.0 mi Calm Calm - N/A   Clear
7:53 AM 28.0 °F - 21.9 °F 78% 29.86 in 10.0 mi Calm Calm - N/A   Mostly Cloudy
8:53 AM 30.9 °F - 25.0 °F 79% 29.87 in 10.0 mi Calm Calm - N/A   Mostly Cloudy
9:53 AM 35.1 °F - 28.0 °F 76% 29.89 in 10.0 mi Calm Calm - N/A   Mostly Cloudy
10:53 AM 39.9 °F - 26.1 °F 58% 29.90 in 10.0 mi Calm Calm - N/A   Clear
11:53 AM 42.1 °F 40.2 °F 25.0 °F 51% 29.89 in 10.0 mi West 3.5 mph - N/A   Clear
12:53 PM 44.1 °F 40.8 °F 28.0 °F 53% 29.86 in 10.0 mi SSW 5.8 mph - N/A   Mostly Cloudy
1:53 PM 46.0 °F 43.1 °F 28.9 °F 51% 29.85 in 10.0 mi SW 5.8 mph - N/A   Mostly Cloudy
2:53 PM 48.0 °F - 30.0 °F 50% 29.84 in 10.0 mi Calm Calm - N/A   Scattered Clouds
3:53 PM 48.0 °F - 30.0 °F 50% 29.85 in 10.0 mi WSW 3.5 mph - N/A   Scattered Clouds
4:53 PM 46.0 °F 43.9 °F 30.0 °F 54% 29.86 in 10.0 mi WSW 4.6 mph - N/A   Clear
5:53 PM 43.0 °F 39.5 °F 30.9 °F 62% 29.87 in 10.0 mi NNW 5.8 mph - N/A   Clear
6:53 PM 39.0 °F 35.7 °F 30.0 °F 70% 29.89 in 10.0 mi NW 4.6 mph - N/A   Clear
7:53 PM 39.0 °F 32.3 °F 30.0 °F 70% 29.91 in 10.0 mi NW 10.4 mph - N/A   Clear
8:53 PM 37.9 °F 30.9 °F 30.0 °F 73% 29.93 in 10.0 mi NW 10.4 mph - N/A   Clear
9:53 PM 37.0 °F 29.8 °F 30.0 °F 76% 29.95 in 10.0 mi NNW 10.4 mph - N/A   Mostly Cloudy
10:53 PM 35.1 °F 28.6 °F 28.0 °F 76% 29.96 in 10.0 mi NNW 8.1 mph - N/A   Scattered Clouds
11:53 PM 34.0 °F 28.0 °F 27.0 °F 75% 29.96 in 10.0 mi NNW 6.9 mph - N/A   Clear